www.pogodaiklimat.ru
Время
(UTC), дата
07 21.01
08 21.01
09 21.01
10 21.01
11 21.01
12 21.01
13 21.01
14 21.01
15 21.01
16 21.01
17 21.01
18 21.01
19 21.01
20 21.01
21 21.01
22 21.01
23 21.01
00 22.01
01 22.01
02 22.01
03 22.01
04 22.01
05 22.01
06 22.01
07 22.01
08 22.01
09 22.01
10 22.01
11 22.01
12 22.01
13 22.01
14 22.01
15 22.01
16 22.01
17 22.01
18 22.01
19 22.01
20 22.01
21 22.01
22 22.01
23 22.01
00 23.01
01 23.01
02 23.01
03 23.01
04 23.01
05 23.01
06 23.01
07 23.01
08 23.01
09 23.01
10 23.01
11 23.01
12 23.01
13 23.01
14 23.01
15 23.01
16 23.01
17 23.01
18 23.01
19 23.01
20 23.01
21 23.01
22 23.01
23 23.01
00 24.01
01 24.01
02 24.01
03 24.01
04 24.01
05 24.01
06 24.01
07 24.01
08 24.01
09 24.01
10 24.01
11 24.01
12 24.01
13 24.01
14 24.01
15 24.01
16 24.01
17 24.01
18 24.01
19 24.01
20 24.01
21 24.01
22 24.01
23 24.01
00 25.01
01 25.01
02 25.01
03 25.01
04 25.01
05 25.01
06 25.01
07 25.01
08 25.01
09 25.01
10 25.01
11 25.01
12 25.01
13 25.01
14 25.01
15 25.01
16 25.01
17 25.01
18 25.01
19 25.01
20 25.01
21 25.01
22 25.01
23 25.01
00 26.01
01 26.01
02 26.01
03 26.01
04 26.01
05 26.01
06 26.01
07 26.01
08 26.01
09 26.01
10 26.01
11 26.01
12 26.01
13 26.01
14 26.01
15 26.01
16 26.01
17 26.01
18 26.01
19 26.01
20 26.01
21 26.01
22 26.01
23 26.01
00 27.01
01 27.01
02 27.01
03 27.01
04 27.01
05 27.01
06 27.01
07 27.01
08 27.01
09 27.01
10 27.01
11 27.01
12 27.01
13 27.01
14 27.01
15 27.01
16 27.01
17 27.01
18 27.01
19 27.01
20 27.01
21 27.01
22 27.01
23 27.01
00 28.01
01 28.01
02 28.01
03 28.01
04 28.01
05 28.01
06 28.01
07 28.01
08 28.01
Ветер
(напр.,м/с)
Видим. Явления Облачность Т
(С)
Тd
(С)
f
(%)
Тe
(С)
Тes
(С)
Комфортность P
(гПа)
Po
(гПа)
Тmin
(С)
Tmax
(С)
R
(мм)
R24
(мм)
S
(см)
З 22 8000 м дождь 10/6 1050 м
[Sc As op]
+7.0 +3.1 76 -1 -1 по сезону 987.0 986.4
ЮЗ 8 4500 м слаб. дождь 9/9 1050 м
[Cu Sc]
+6.8 +3.3 78 +2 +2 тепло 988.4 987.8
ЮЗ 9 45 км в посл. час дождь 8/4 840 м
[Cu hum Ac trans]
+6.8 +3.0 77 +1 +1 по сезону 989.6 989.0 1
ЮЗ 10 45 км 6/4 900 м
[Cu hum Ac trans]
+7.5 +2.4 70 +2 +2 тепло 990.6 990.0
ЮЗ 9-14
{17}
45 км 3/3 960 м
[Cu hum]
+7.8 +1.4 64 +3 +3 тепло 990.9 990.3
ЮЗ 10 45 км {дождь} 5/5 1050 м
[Cu hum]
+8.0 +1.7 64 +3 +3 по сезону 991.0 990.4
ЮЗ 9 45 км 8/6 1140 м
[Cu hum Ci fib]
+8.1 +1.3 62 +3 +4 тепло 990.8 990.2
Ю 10-15
{16}
45 км 9/9 1200 м
[Sc]
+8.2 +1.2 61 +3 +3 тепло 990.6 990.0
ЮЗ 9 45 км 9/9 1200 м
[Sc]
+8.1 +1.3 62 +3 +3 тепло 990.9 990.3
Ю 8-11
{15}
45 км 9/9 1200 м
[Sc]
+7.8 +1.5 64 +3 +3 тепло 990.8 990.2
Ю 7-12
{13}
45 км 9/9 1440 м
[Sc]
+7.4 +1.8 68 +3 +3 тепло 990.8 990.2
Ю 6 40 км 9/9 1000 м
[Sc]
+7.1 +1.9 69 +3 +3 тепло 990.6 990.0 +5.6 +11.0
Ю 6 40 км 9/5 1140 м
[Sc Ci fib]
+6.5 +1.8 72 +2 +2 тепло 990.1 989.5
Ю 6 40 км 10/0
[As trans]
+6.3 +1.6 72 +2 +2 тепло 989.4 988.8
Ю 6 40 км 10/8 1440 м
[Sc As trans]
+6.9 +1.7 69 +3 +3 тепло 988.2 987.6
Ю 5-8
{10}
30 км слаб. дождь 10/9 800 м
[Sc]
+6.0 +3.5 84 +2 +2 тепло 987.2 986.6
ЮВ 6-9
{9}
13 км слаб. дождь 10/10 660 м
[Sc]
+5.5 +4.3 92 0 0 тепло 984.9 984.3
ЮВ 7 15 км слаб. дождь 10/10 200 м
[Sc]
+6.1 +5.3 95 +1 +1 по сезону 982.9 982.3 2
Ю 7 50 км в посл. час дождь 10/9 540 м
[Sc]
+8.1 +6.3 88 +4 +4 тепло 981.9 981.3
Ю 8 20 км слаб. дождь 9/9 540 м
[Sc]
+8.9 +6.8 87 +4 +4 тепло 981.2 980.6
Ю 7 25 км слаб. дождь 9/9 540 м
[Sc]
+8.8 +7.1 89 +5 +5 тепло 980.4 979.8 1
З 10 30 км слаб. дождь 10/9 300 м
[Sc]
+3.6 +2.0 89 -3 -3 тепло 983.0 982.4
З 8-11
{13}
40 км в посл. час дождь 10/9 270 м
[St]
+2.8 +1.5 91 -4 -4 тепло 985.4 984.7
ЮЗ 6 22 км {дождь} 9/9 200 м
[Sc]
+2.6 +1.5 92 -3 -3 по сезону 986.4 985.7 +2.6 +9.2 6
ЮЗ 7-10
{10}
22 км 9/9 300 м
[Sc]
+3.6 +2.2 91 -3 -3 тепло 987.5 986.9
ЮЗ 6 16 км 9/5 450 м
[Sc Ac trans]
+3.9 +2.1 88 -2 -2 тепло 988.2 987.6
ЮЗ 7 18 км 9/6 420 м
[Cu Sc Ac trans]
+4.5 +2.3 86 -1 -1 по сезону 988.9 988.3
ЮЗ 8 16 км 9/3 480 м
[Cu med, cong As trans]
+4.9 +2.0 81 -1 -1 тепло 989.5 988.9
ЮЗ 8 16 км 9/4 480 м
[Cu med, cong Ac trans]
+5.1 +1.8 79 -1 -1 тепло 990.2 989.6
ЮЗ 8 16 км 8/4 540 м
[Cu med, cong Ci fib]
+5.7 +2.2 78 0 0 по сезону 990.7 990.1
ЮЗ 8 22 км 8/4 600 м
[Cu med, cong Ci fib]
+5.8 +1.6 74 0 +1 тепло 991.0 990.4
ЮЗ 8 22 км 6/4 660 м
[Cu med, cong Ci fib]
+5.9 +1.0 71 +1 +1 тепло 991.6 991.0
ЮЗ 7 25 км 5/3 870 м
[Cu med, cong Ci fib]
+5.6 +0.7 71 +1 +1 по сезону 992.4 991.8
ЮЗ 6 22 км 6/3 840 м
[Cu med, cong Ci fib]
+4.6 +0.5 75 -1 -1 тепло 993.3 992.6
ЮЗ 4 22 км 8/3 1020 м
[Sc Ci fib]
+4.1 +0.4 77 -0 -0 тепло 993.7 993.0
ЮЗ 4 40 км 9/9 600 м
[Sc]
+3.6 +0.3 79 -1 -1 по сезону 994.1 993.4 +2.4 +6.2
ЮЗ 4-6
{6}
35 км 9/9 960 м
[Sc]
+3.3 +0.3 81 -1 -1 тепло 995.0 994.3
ЮЗ 3-5
{6}
35 км 9/9 900 м
[Sc]
+3.2 +0.5 82 -1 -1 тепло 995.5 994.8
ЮЗ 3 22 км 5/5 900 м
[Sc]
+2.1 +0.3 88 -2 -2 по сезону 995.9 995.2
Ю 2-3
{5}
15 км 9/0
[Ci fib]
+1.4 +0.1 91 -2 -2 тепло 996.5 995.8
Ю 4-5
{5}
10 км 9/0
[Ci fib]
+0.9 -0.2 92 -4 -4 тепло 997.0 996.3
Ю 3 8000 м 9/0
[Ci fib]
+0.6 -0.3 94 -4 -4 по сезону 996.9 996.2
Ю 2-3
{3}
5000 м дымка 8/0
[Ac trans]
+0.1 -0.7 94 -4 -4 по сезону 996.5 995.8
Ю 2 4500 м дымка 8/4 540 м
[Sc Ac trans]
-0.6 -0.9 98 -5 -5 тепло 996.7 996.0
Ю 3 4200 м дымка 9/0
[Ac trans]
-0.5 -1.1 96 -5 -5 по сезону 996.9 996.2
Ю 3-3
{3}
4000 м дымка 9/0
[Ac trans]
0.0 -0.6 96 -5 -5 по сезону 996.8 996.1
Ю 3-3
{4}
6000 м дымка 9/0
[Ac trans]
+0.1 -0.5 96 -5 -5 тепло 996.5 995.8
ЮВ 4 9000 м 10/0
[Ac trans]
+0.7 -0.2 94 -5 -5 по сезону 996.1 995.4 -0.8 +3.8
ЮВ 3 9000 м 9/0
[Ac trans Ci fib]
+0.6 -0.5 92 -4 -4 по сезону 996.1 995.4
ЮВ 3 7000 м дымка 9/0
[Ac trans Ci sp]
+0.4 -0.6 93 -4 -4 тепло 996.0 995.3
Ю 3 10 км 9/6 800 м
[Sc Ac trans Ci sp]
+0.5 -0.6 92 -4 -4 по сезону 995.9 995.2
Ю 4-6
{6}
15 км 9/9 600 м
[Sc]
+2.3 +0.3 87 -3 -3 по сезону 996.0 995.3
Ю 5-7
{8}
15 км в посл. час дождь 9/9 800 м
[Sc]
+3.4 +1.0 84 -2 -2 тепло 995.8 995.1
Ю 5 22 км {дождь} 9/9 450 м
[Cu Sc]
+3.9 +1.2 83 -1 -1 по сезону 995.2 994.5 0.2
Ю 6 25 км 8/6 500 м
[Cu Sc Ci fib]
+4.7 +1.3 79 -0 -0 тепло 994.6 993.9
ЮЗ 5 28 км 8/6 570 м
[Cu Sc Ci fib]
+5.1 +1.4 77 +1 +1 тепло 994.3 993.6
Ю 3 30 км 9/9 630 м
[Cu Sc]
+4.8 +1.4 79 +1 +1 по сезону 994.4 993.7
Ю 2 28 км 9/9 630 м
[Cu Sc]
+3.8 +1.5 85 +1 +1 тепло 994.6 993.9
Ю 3 25 км 9/9 800 м
[Cu Sc]
+3.8 +1.5 85 0 0 тепло 994.7 994.0
Ю 2 25 км 9/9 600 м
[Cu Sc]
+3.3 +1.4 87 0 0 по сезону 994.6 993.9 +0.2 +5.3
ЮВ 2 25 км 9/8 1350 м
[Sc Ac trans]
+3.0 +0.9 86 -0 -0 тепло 994.6 993.9
ЮВ 2-3
{3}
25 км 9/9 1410 м
[Sc]
+2.5 +0.7 88 -1 -1 тепло 994.5 993.8
ЮВ 1 20 км 10/4 1500 м
[Sc As trans]
+1.8 +0.7 92 -0 -0 по сезону 994.3 993.6
В 1 15 км 10/3 1500 м
[Sc As trans]
+0.5 -0.3 94 -2 -2 тепло 994.0 993.3
В 1 8000 м 10/6 1500 м
[Sc As trans]
+0.1 -0.7 94 -2 -2 тепло 994.1 993.4
ЮВ 1 15 км 10/9 600 м
[Sc]
+1.3 +0.5 94 -1 -1 по сезону 994.2 993.5
В 1 10 км 10/3 900 м
[Sc As trans]
0.0 -0.9 94 -2 -2 тепло 993.9 993.2
В 2 15 км 10/9 800 м
[Sc]
+0.4 -0.3 95 -3 -3 тепло 994.0 993.3
В 1 15 км 10/9 900 м
[Sc]
+0.9 +0.2 95 -1 -1 по сезону 993.9 993.2
В 1 10 км 10/6 900 м
[Sc As trans]
+0.5 -0.2 95 -2 -2 тепло 994.0 993.3
СЗ 2 10 км 10/6 900 м
[Sc As trans]
+0.2 -0.6 94 -4 -4 тепло 994.1 993.4
СВ 1 6000 м дымка 10/1 1500 м
[Sc As trans]
-0.6 -1.2 96 -3 -3 по сезону 994.3 993.6 -0.9 +3.5
З 2-3
{3}
6000 м дымка 10/0
[As trans]
-1.5 -1.9 97 -6 -6 по сезону 994.9 994.2
СЗ 1 6000 м дымка 9/0
[Ac trans Ci sp]
-0.8 -1.5 95 -3 -3 тепло 995.4 994.7
З 2 3200 м дымка 9/3 60 м
[Sc Ac trans Ci sp]
-0.7 -1.3 96 -5 -4 прохладно 996.1 995.4
З 2 3500 м дымка 9/3 60 м
[Sc Ac trans Ci sp]
+0.7 0.0 95 -3 -2 по сезону 996.6 995.9
СЗ 2-4
{4}
5000 м дымка 9/9 540 м
[Sc]
+1.4 +0.5 94 -2 -2 тепло 997.1 996.4
З 2 5000 м дымка 9/4 450 м
[Sc Ac trans]
+2.6 +1.2 90 -1 0 по сезону 997.3 996.6
З 3 10 км 9/6 400 м
[Cu Sc Ac trans]
+3.5 +1.2 85 -0 -0 тепло 997.4 996.7
З 3 12 км 9/4 360 м
[Cu med, cong Ac trans]
+4.2 +1.3 81 +1 +1 тепло 997.6 996.9
З 5 18 км 8/5 450 м
[Cu med, cong Ac trans Ci fib]
+3.3 +0.6 82 -2 -2 по сезону 997.8 997.1
З 4 18 км 9/9 400 м
[Cu Sc]
+3.1 +0.5 83 -2 -2 по сезону 998.2 997.5
З 4 25 км слаб. ливневой дождь 9/9 400 м
[Cu Sc]
+2.3 +0.4 87 -3 -3 тепло 998.6 997.9
З 3 40 км в посл. час ливневой дождь 4/4 300 м
[Cu Sc]
-0.3 -1.2 94 -5 -5 по сезону 998.6 997.9 -2.4 +4.6 0.0
З 2-2
{4}
18 км 3/3 1500 м
[Sc]
-0.8 -1.4 96 -5 -5 по сезону 998.7 998.0
ЮЗ 2-2
{2}
16 км 1/1 480 м
[Cu hum]
-0.9 -1.3 97 -5 -5 тепло 998.7 998.0
ЮЗ 1 5000 м местами туман поземный 6/3 1350 м
[Sc Ac trans]
-0.9 -1.3 97 -3 -3 по сезону 998.9 998.2
З 1-2
{4}
20 км 9/0
[Ac trans]
-0.7 -1.3 96 -3 -3 по сезону 998.9 998.2
ЮЗ 1-2
{2}
3500 м местами туман поземный 9/0
[Ac trans]
-1.4 -2.0 96 -4 -4 тепло 999.1 998.4
ЮЗ 1 10 км местами туман поземный 9/0
[Ac trans]
-1.6 -2.0 97 -4 -4 по сезону 999.3 998.6
ЮЗ 1-1
{2}
12 км местами туман поземный 9/0
[Ac trans]
-1.7 -2.0 98 -4 -4 по сезону 999.4 998.7
ЮЗ 1-1
{1}
7000 м местами туман поземный 9/0
[Ac trans]
-2.0 -2.2 99 -4 -4 тепло 999.7 999.0
ЮЗ 1 800 м переохл. туман 4/0
[Ac trans]
-2.1 -2.4 98 -5 -5 по сезону 999.8 999.1
ЮЗ 1-1
{2}
600 м переохл. туман 4/0
[Ac trans]
-3.0 -3.4 97 -5 -5 по сезону 1000.0 999.3
З 1-1
{3}
1200 м в посл. час туман 3/0
[Ac trans]
-1.9 -2.1 99 -4 -4 тепло 1000.2 999.5
З 1 1500 м дымка {туман} 9/0
[As trans]
-2.2 -2.4 99 -5 -5 по сезону 1000.5 999.8 -4.5 -0.3
ЮЗ 2 600 м туман 9/0
[Ac As]
-2.8 -3.1 98 -7 -7 по сезону 1001.1 1000.4
ЮЗ 2 500 м туман местами 8/0
[Ac trans Ci fib]
-3.0 -3.3 98 -7 -7 тепло 1001.8 1001.1
З 1 2800 м в посл. час туман 8/3 1440 м
[Sc Ac trans Ci sp]
-1.8 -2.8 93 -4 -4 по сезону 1002.5 1001.8
З 2 5000 м дымка 8/4 1050 м
[Sc Ci fib]
+0.5 -0.9 90 -3 -2 по сезону 1003.0 1002.3
З 4 10 км 8/1 1050 м
[Sc Ac trans Ci fib]
+2.3 -0.3 83 -3 -2 тепло 1003.6 1002.9
З 4 15 км {туман} 6/1 1500 м
[Sc Ac trans Ci fib]
+3.2 +0.2 81 -1 -1 по сезону 1003.8 1003.1
З 4 17 км 6/4 540 м
[Cu Sc Ac trans Ci fib]
+3.7 -0.1 76 -1 -0 тепло 1004.1 1003.4
З 5 20 км 6/4 540 м
[Cu Sc Ac trans Ci fib]
+3.6 -0.6 74 -1 -1 тепло 1004.5 1003.8
З 4 25 км 9/1 600 м
[Cu Sc As trans Ci fib]
+3.1 -0.9 75 -1 -1 по сезону 1005.0 1004.3
ЮЗ 3 30 км 9/1 1500 м
[Sc As trans Ci fib]
+1.1 -1.6 82 -3 -3 по сезону 1005.8 1005.1
ЮЗ 3-4
{4}
30 км 9/0
[As trans]
+1.1 -1.4 83 -3 -3 тепло 1006.2 1005.5
ЮЗ 3 22 км 9/0
[As trans]
+1.4 -1.0 84 -3 -3 по сезону 1006.5 1005.8 -4.7 +4.1
ЮЗ 3 20 км 9/3 1500 м
[Sc As op]
+1.3 -1.1 84 -3 -3 по сезону 1006.9 1006.2
ЮЗ 3 20 км 9/4 1500 м
[Sc As op]
+1.3 -1.4 82 -3 -3 тепло 1007.2 1006.5
Ю 3 18 км 9/0
[As op]
+1.1 -1.3 84 -3 -3 по сезону 1007.3 1006.6
Ю 3 10 км слаб. снег 10/4 750 м
[Sc As op]
+1.3 -1.3 83 -3 -3 тепло 1007.2 1006.5
Ю 3 10 км в посл. час снег 10/6 500 м
[Sc As op]
+1.5 -1.1 83 -3 -3 тепло 1007.0 1006.3
Ю 3 16 км {снег} 10/9 300 м
[St]
+1.4 -0.8 85 -3 -3 по сезону 1006.8 1006.1 0.1
Ю 4-6
{6}
8000 м слаб. снег 10/9 270 м
[St]
+1.2 +0.2 93 -4 -4 по сезону 1006.5 1005.8
ЮВ 2-3
{6}
6000 м в посл. час снег 10/9 210 м
[St]
+1.2 +0.2 93 -2 -2 тепло 1006.7 1006.0
В 2 5000 м слаб. снег 10/9 180 м
[St]
+0.3 -0.2 96 -3 -3 по сезону 1007.0 1006.3 0.5
В 2-3
{4}
3000 м слаб. дождь со снегом 10/9 180 м
[St]
+0.4 +0.2 99 -3 -3 тепло 1007.7 1007.0
СВ 1 3300 м в посл. час дождь со снегом {ливн. снег} 10/9 90 м
[St]
+0.5 +0.1 97 -2 -2 тепло 1008.6 1007.9
С 1 3300 м дымка {снег, дождь} 10/9 200 м
[Sc]
+0.9 +0.5 97 -1 -1 по сезону 1009.5 1008.8 +0.3 +1.7 1 0
С 3 4000 м дымка 10/9 90 м
[St]
+1.2 +0.5 95 -3 -3 тепло 1010.8 1010.1
З 2 2200 м дымка 10/9 180 м
[Sc]
+1.1 +0.6 96 -3 -3 тепло 1011.8 1011.1
З 2 3500 м дымка 9/9 240 м
[Sc]
+1.5 +0.9 96 -2 -2 по сезону 1012.6 1011.9
З 3-4
{4}
8000 м 3/3 240 м
[Cu hum]
+2.0 +0.5 90 -2 -1 тепло 1013.6 1012.9
З 4 9000 м 8/8 270 м
[Cu Sc]
+3.0 +1.1 87 -2 -1 тепло 1014.2 1013.5
З 5 15 км 4/4 360 м
[Cu Sc]
+4.4 +1.1 79 -0 0 по сезону 1014.3 1013.6
З 4 18 км 8/8 480 м
[Cu Sc]
+4.2 +1.3 81 -0 0 тепло 1014.5 1013.8
З 3 30 км в посл. час ливневой дождь 6/6 240 м
[Cu Sc]
+2.3 +1.2 92 -2 -2 тепло 1014.7 1014.0
З 2 15 км слаб. ливневой дождь 8/8 630 м
[Cu Sc]
+3.3 +2.2 92 0 0 по сезону 1015.4 1014.7 0.5
ЮЗ 2 15 км слаб. ливневой дождь 8/8 570 м
[Cu Sc Ci fib]
+1.0 +0.5 96 -3 -3 по сезону 1015.8 1015.1
З 1 22 км в посл. час ливневой дождь 8/8 540 м
[Cu Sc]
+1.6 +1.0 96 -0 -0 тепло 1016.1 1015.4
ЮЗ 4 30 км слаб. ливневой дождь со снегом 9/9 300 м
[Cu Sc]
+1.8 +1.0 94 -3 -3 по сезону 1016.2 1015.5 +0.8 +4.9 0.9
ЮЗ 2 50 км в посл. час дождь со снегом 5/1 1320 м
[Sc Ci fib]
+1.0 +0.4 96 -3 -3 по сезону 1016.1 1015.4
ЮЗ 2 45 км 8/0
[Ac trans Ci fib]
+0.3 -0.3 96 -3 -3 тепло 1016.2 1015.5
ЮЗ 2 30 км {ливн. снег} 9/4 660 м
[Sc Ac trans Ci fib]
+0.2 -0.3 96 -4 -4 по сезону 1016.1 1015.4 0.0
ЮЗ 2 25 км 9/9 500 м
[Sc]
+0.7 +0.1 96 -3 -3 тепло 1016.1 1015.4
ЮЗ 2 25 км 9/9 480 м
[Sc]
+1.3 +0.5 94 -2 -2 тепло 1015.9 1015.2
Ю 3 22 км {ливн. снег} 3/0
[Ac trans Ci fib]
+1.1 +0.4 95 -4 -4 по сезону 1015.2 1014.5 0.0
Ю 3 15 км 8/0
[Ac trans Ci fib]
+0.6 0.0 96 -4 -4 по сезону 1014.6 1013.9
Ю 3 10 км 9/0
[Ac As]
+1.0 +0.2 94 -4 -4 тепло 1014.4 1013.7
Ю 2 10 км 10/9 400 м
[Sc]
+1.4 +0.4 93 -2 -2 по сезону 1014.0 1013.3
Ю 3-4
{5}
9000 м 10/9 570 м
[Sc]
+1.3 +0.3 93 -3 -3 тепло 1013.4 1012.7
ЮЗ 3 12 км 10/6 1470 м
[Sc Ac As]
+1.4 0.0 90 -3 -3 тепло 1013.1 1012.4
Ю 3 12 км 9/0
[Ac As]
+1.2 -0.4 89 -3 -3 по сезону 1012.6 1011.9 -0.4 +1.8 0.0
Ю 4-5
{5}
15 км 9/0
[Ac trans]
+1.1 -0.8 87 -4 -4 тепло 1011.7 1011.0
Ю 3 20 км 8/0
[Ac trans Ci fib]
+0.6 -1.4 86 -4 -4 тепло 1011.7 1011.0
Ю 4 25 км 8/6 840 м
[Sc Ac trans]
+1.3 -1.5 82 -4 -4 по сезону 1011.2 1010.5
Ю 5 30 км 9/4 450 м
[Sc As trans]
+2.0 -0.8 82 -4 -3 по сезону 1010.9 1010.2
Ю 5-8
{9}
7000 м слаб. снег 9/9 210 м
[St]
+1.2 +0.3 94 -5 -5 тепло 1011.0 1010.3
Ю 5 20 км слаб. снег 9/9 270 м
[St]
+1.6 +0.5 92 -4 -4 по сезону 1010.4 1009.7 0.2
Ю 5-7
{8}
15 км слаб. морось 10/9 240 м
[Frnb]
+1.7 +0.4 91 -4 -4 по сезону 1009.4 1008.7
Ю 3-5
{7}
12 км слаб. морось 10/9 240 м
[Frnb]
+1.8 +0.6 92 -3 -3 тепло 1009.3 1008.6
Ю 4 10 км в посл. час зёрна 10/9 180 м
[Frnb]
+1.8 +0.9 94 -3 -3 по сезону 1008.7 1008.0 0.0
Ю 3-4
{6}
5000 м слаб. морось 10/9 120 м
[Frnb]
+1.9 +1.1 94 -3 -3 по сезону 1008.8 1008.1
Ю 3-4
{5}
2200 м слаб. морось 10/9 120 м
[Frnb]
+1.9 +1.5 97 -3 -3 тепло 1008.5 1007.8
Ю 3 3000 м слаб. морось 10/9 50 м
[Frnb]
+2.3 +1.9 97 -2 -2 по сезону 1008.1 1007.4 +0.4 +2.3 0.4
ЮЗ 4 3500 м слаб. морось 10/9 90 м
[Frnb]
+3.1 +2.7 97 -2 -2 тепло 1008.0 1007.3
З 4 6000 м слаб. морось 10/9 150 м
[Frnb]
+4.0 +3.5 97 -1 -1 тепло 1007.9 1007.2
З 4 8000 м в посл. час морось 9/9 240 м
[Sc]
+4.1 +3.5 96 -1 -1 по сезону 1007.8 1007.1 0.0
З 4-5
{7}
8000 м в посл. час морось 9/9 210 м
[St]
+4.4 +3.8 96 -0 -0 тепло 1008.0 1007.3
З 5 12 км 9/9 270 м
[Sc]
+4.8 +4.0 95 -0 -0 тепло 1008.3 1007.6
З 5 18 км {морось} 9/9 300 м
[Sc]
+4.7 +3.6 93 -0 -0 по сезону 1007.9 1007.2 0.0
З 4 18 км 9/9 240 м
[Sc]
+4.5 +3.6 94 0 0 тепло 1007.9 1007.2
З 4 20 км 10/9 240 м
[Sc]
+4.3 +3.1 92 -0 -0 тепло 1007.9 1007.2
СЗ 4 30 км 9/8 360 м
[Sc Ci fib]
+3.9 +2.7 92 -1 -1 по сезону 1007.5 1006.8
З 2 30 км 9/4 360 м
[Sc Ci fib]
+1.9 +1.1 94 -2 -2 тепло 1007.3 1006.6
ЮЗ 1 25 км местами туман поземный 9/1 660 м
[Sc Ac As Ci fib]
+1.0 +0.6 97 -1 -1 тепло 1006.6 1005.9
СЗ 2 25 км местами туман поземный 9/1 200 м
[St Ac trans]
+1.8 +1.5 98 -2 -2 по сезону 1006.3 1005.6 +0.5 +4.9 0.0
СЗ 2 22 км местами туман поземный 9/1 270 м
[St Ac trans]
+1.0 +0.9 99 -3 -3 тепло 1005.6 1004.9
СВ 2 8000 м 9/1 270 м
[St Ac trans]
+1.5 +1.0 96 -2 -2 тепло 1005.2 1004.5
Местоположение метеостанции Бремен (Германия): широта 53.05 долгота 8.80 высота над уровнем моря 3 м.
В архиве по умолчанию представлена погода в Бремене за последнюю неделю. Архивные данные за месяц целиком и за предыдущие месяцы, начиная с января 2011 года, Вы можете получить, выбрав интересующий диапазон дат из раскрывающегося списка и нажав кнопку "Найти!".
*Определитесь, кто Вы:
Внимание! Время в таблицах - всемирное. Для получения местного времени необходимо прибавить поправку, которая равна 1 ч.
Смотрите также архив погоды в соседних городах и на ближайших метеорологических станциях:
Партнеры нашего сайта:      
Пояснения к столбцам:
  • Ветер - указаны скорость ветра в м/с - средняя за 10 мин, порывы в срок и между сроками (в фигурных скобках) и направление, откуда дует ветер: С - северный,
  • СВ - северо-восточный, В - восточный, ЮВ - юго-восточный, Ю - южный, ЮЗ - юго-западный, З - западный, СЗ - северо-западный.
  • Видимость - горизонтальная дальность видимости в метрах или километрах. При видимости от 1 до 10 км при отсутствии осадков обычно наблюдается дымка, при ухудшении видимости до 1 км и менее - туман. В сухую погоду видимость может ухудшаться дымом, пылью или мглою.
  • Явления - указаны атмосферные явления, наблюдавшиеся в срок или в последний час перед сроком; фигурными скобками обозначены явления, наблюдавшиеся между сроками (за 1-3 часа до срока); квадратными скобками обозначены град или гололедные отложения с указанием их диаметра в мм.
  • Облачность - указаны через наклонную черту общая и нижняя облачность в баллах и высота нижней границы облаков в метрах; квадратными скобками обозначены формы облаков: Ci - перистые, Cs - перисто-слоистые, Cc - перисто-кучевые, Ac - высококучевые, As - высокослоистые, Sc - слоисто-кучевые, Ns - слоисто-дождевые, Cu - кучевые, Cb - кучево-дождевые. Подробнее классификацию облаков см. в Атласе облаков (PDF).
  • T - Температура воздуха - температура, измеренная на высоте 2 м над землей.
  • Td - Температура точки росы - температура, при понижении до которой содержащийся в воздухе водяной пар достигнет насыщения.
  • f - Относительная влажность воздуха - влажноcть воздуха, измеренная на высоте 2 м над землей.
  • Te - Эффективная температура - температура, которую ощущает одетый по сезону человек в тени. Характеристика душности погоды. При расчете учитывается влияние влажности воздуха и скорости ветра на теплоощущения человека.
  • Tes - Эффективная температура на солнце - температура, которую ощущает человек, с поправкой на солнечный нагрев. Характеристика знойности погоды. Зависит от высоты солнца над горизонтом, облачности и скорости ветра. Ночью, в пасмурную погоду, а также при ветре 12 м/с и более поправка равна нулю.
  • P - Атмосферное давление - приведенное к уровню моря атмосферное давление.
  • Po - Атмосферное давление - измеренное на уровне метеостанции атмосферное давление.
  • Tmin - Минимальная температура - минимум температуры воздуха на высоте 2 м над землей.
  • Tmax - Максимальная температура - максимум температуры воздуха на высоте 2 м над землей.
  • R - Количество осадков - Количество выпавших осадков за период времени, мм. При наведении курсора мыши на число - период времени, за который выпало указанное количество осадков.
  • R24 - Количество осадков - Количество выпавших осадков за 24 часа, мм.
  • S - Снежный покров - Высота снежного покрова, см. При наведении курсора мыши на число - состояние снежного покрова и степень покрытия местности в баллах.